Weather History for Farmington, MO

Change the Weather History Date:

Saturday, December 22, 2012

  Actual Average Record
Temperature  
Mean Temperature 32 °F -  
Max Temperature 48 °F 39 °F 57 °F (2003)
Min Temperature 17 °F 23 °F 1 °F (2000)
Degree Days  
Heating Degree Days 32    
Moisture  
Dew Point 17 °F    
Average Humidity 58    
Maximum Humidity 93    
Minimum Humidity 30    
Precipitation  
Precipitation 0.00 in - - ()
Sea Level Pressure  
Sea Level Pressure 30.17 in    
Wind  
Wind Speed 4 mph (South)    
Max Wind Speed 14 mph    
Max Gust Speed -    
Visibility 10 miles    
Events      
Averages and records for this station are not official NWS values.
T = Trace of Precipitation, MM = Missing Value Source: NWS Daily Summary

Daily Weather History Graph

Daily Weather History Graph

Search for Another Location

Airport:

Trip Planner

Search our weather history database for the weather conditions in past years. The results will help you decide how hot, cold, wet, or windy it might be!

Date:

Astronomy

Dec. 22, 2012 Rise Set
Actual Time 7:14 AM CST 4:47 PM CST
Civil Twilight 6:44 AM CST 5:16 PM CST
Nautical Twilight 6:11 AM CST 5:49 PM CST
Astronomical Twilight 5:39 AM CST 6:21 PM CST
Moon 1:01 PM CST (12/22) 2:02 AM CST (12/22)
Length of Visible Light 10h 31m
Length of Day
9h 33m
Waxing Gibbous, 74% of the Moon is Illuminated
Dec 22
Waxing Gibbous
Dec 28
Full
Jan 4
Last Quarter
Jan 11
New
Jan 18
First Quarter

Hourly Weather History & Observations

Time (CST) Temp. Windchill Dew Point Humidity Pressure Visibility Wind Dir Wind Speed Gust Speed Precip Events Conditions
12:15 AM 24.8 °F - 10.4 °F 54% 30.29 in 10.0 mi Calm Calm - N/A   Clear
12:35 AM 23.0 °F - 15.8 °F 74% 30.29 in 10.0 mi Calm Calm - N/A   Clear
12:55 AM 21.2 °F - 12.2 °F 68% 30.29 in 10.0 mi Calm Calm - N/A   Clear
1:15 AM 21.2 °F - 12.2 °F 68% 30.29 in 10.0 mi Calm Calm - N/A   Clear
1:35 AM 21.2 °F - 12.2 °F 68% 30.29 in 10.0 mi Calm Calm - N/A   Clear
1:55 AM 21.2 °F - 12.2 °F 68% 30.28 in 10.0 mi Calm Calm - N/A   Clear
2:15 AM 21.2 °F - 12.2 °F 68% 30.28 in 10.0 mi Calm Calm - N/A   Clear
2:35 AM 19.4 °F - 14.0 °F 80% 30.28 in 10.0 mi Calm Calm - N/A   Clear
2:55 AM 19.4 °F 14.3 °F 14.0 °F 80% 30.29 in 10.0 mi West 3.5 mph - N/A   Clear
3:15 AM 19.4 °F - 15.8 °F 86% 30.29 in 10.0 mi Calm Calm - N/A   Clear
3:35 AM 19.4 °F - 14.0 °F 80% 30.29 in 10.0 mi Calm Calm - N/A   Clear
3:55 AM 19.4 °F - 15.8 °F 86% 30.28 in 10.0 mi Calm Calm - N/A   Clear
4:15 AM 19.4 °F - 12.2 °F 74% 30.28 in 10.0 mi Calm Calm - N/A   Clear
4:35 AM 17.6 °F - 12.2 °F 79% 30.28 in 10.0 mi Calm Calm - N/A   Clear
4:55 AM 19.4 °F - 14.0 °F 80% 30.28 in 10.0 mi Calm Calm - N/A   Clear
5:15 AM 17.6 °F - 12.2 °F 79% 30.28 in 10.0 mi Calm Calm - N/A   Clear
5:35 AM 17.6 °F - 15.8 °F 93% 30.29 in 10.0 mi Calm Calm - N/A   Clear
5:55 AM 19.4 °F - 15.8 °F 86% 30.29 in 10.0 mi Calm Calm - N/A   Clear
6:15 AM 17.6 °F - 12.2 °F 79% 30.29 in 10.0 mi Calm Calm - N/A   Clear
6:35 AM 17.6 °F - 14.0 °F 86% 30.29 in 10.0 mi Calm Calm - N/A   Clear
6:55 AM 17.6 °F - 14.0 °F 86% 30.28 in 10.0 mi Calm Calm - N/A   Clear
7:15 AM 17.6 °F - 12.2 °F 79% 30.27 in 10.0 mi Calm Calm - N/A   Clear
7:35 AM 17.6 °F - 12.2 °F 79% 30.27 in 10.0 mi Calm Calm - N/A   Clear
7:55 AM 17.6 °F - 15.8 °F 93% 30.27 in 10.0 mi Calm Calm - N/A   Clear
8:15 AM 19.4 °F 14.3 °F 15.8 °F 86% 30.27 in 10.0 mi SSE 3.5 mph - N/A   Clear
8:35 AM 23.0 °F 15.8 °F 17.6 °F 80% 30.27 in 10.0 mi SSE 5.8 mph - N/A   Clear
8:55 AM 26.6 °F 18.2 °F 17.6 °F 69% 30.26 in 10.0 mi SSE 8.1 mph - N/A   Clear
9:15 AM 28.4 °F 22.2 °F 15.8 °F 59% 30.26 in 10.0 mi SSE 5.8 mph - N/A   Clear
9:35 AM 30.2 °F 23.4 °F 17.6 °F 60% 30.25 in 10.0 mi South 6.9 mph - N/A   Clear
9:55 AM 33.8 °F 25.8 °F 15.8 °F 48% 30.25 in 10.0 mi South 10.4 mph - N/A   Clear
10:15 AM 35.6 °F 27.1 °F 12.2 °F 38% 30.25 in 10.0 mi South 12.7 mph - N/A   Clear
10:35 AM 37.4 °F 29.3 °F 12.2 °F 36% 30.25 in 10.0 mi South 12.7 mph - N/A   Clear
10:55 AM 37.4 °F 29.3 °F 12.2 °F 36% 30.24 in 10.0 mi South 12.7 mph - N/A   Clear
11:15 AM 39.2 °F 32.0 °F 12.2 °F 33% 30.22 in 10.0 mi SSE 11.5 mph - N/A   Clear
11:35 AM 41.0 °F 34.3 °F 14.0 °F 33% 30.21 in 10.0 mi South 11.5 mph - N/A   Clear
11:55 AM 42.8 °F 37.0 °F 14.0 °F 31% 30.20 in 10.0 mi South 10.4 mph - N/A   Clear
12:15 PM 42.8 °F 36.2 °F 15.8 °F 34% 30.18 in 10.0 mi South 12.7 mph - N/A   Clear
12:35 PM 44.6 °F 38.1 °F 15.8 °F 31% 30.17 in 10.0 mi SSW 13.8 mph - N/A   Clear
12:55 PM 44.6 °F 38.4 °F 15.8 °F 31% 30.16 in 10.0 mi South 12.7 mph - N/A   Clear
1:15 PM 46.4 °F 41.1 °F 17.6 °F 32% 30.15 in 10.0 mi South 11.5 mph - N/A   Clear
1:35 PM 46.4 °F 41.9 °F 17.6 °F 32% 30.13 in 10.0 mi South 9.2 mph - N/A   Clear
1:55 PM 48.2 °F - 17.6 °F 30% 30.12 in 10.0 mi South 11.5 mph - N/A   Clear
2:15 PM 46.4 °F 40.7 °F 17.6 °F 32% 30.10 in 10.0 mi South 12.7 mph - N/A   Clear
2:35 PM 46.4 °F 41.1 °F 17.6 °F 32% 30.10 in 10.0 mi South 11.5 mph - N/A   Clear
2:55 PM 46.4 °F 41.1 °F 17.6 °F 32% 30.10 in 10.0 mi SSE 11.5 mph - N/A   Clear
3:15 PM 46.4 °F 42.4 °F 17.6 °F 32% 30.10 in 10.0 mi South 8.1 mph - N/A   Clear
3:35 PM 46.4 °F 41.9 °F 17.6 °F 32% 30.08 in 10.0 mi South 9.2 mph - N/A   Clear
3:55 PM 46.4 °F 42.4 °F 17.6 °F 32% 30.08 in 10.0 mi SSE 8.1 mph - N/A   Clear
4:35 PM 42.8 °F 39.3 °F 17.6 °F 36% 30.07 in 10.0 mi South 5.8 mph - N/A   Clear
4:55 PM 42.8 °F 39.3 °F 17.6 °F 36% 30.07 in 10.0 mi SSE 5.8 mph - N/A   Clear
5:15 PM 41.0 °F 38.0 °F 17.6 °F 39% 30.07 in 10.0 mi SE 4.6 mph - N/A   Clear
5:35 PM 39.2 °F 33.6 °F 17.6 °F 42% 30.07 in 10.0 mi SSE 8.1 mph - N/A   Clear
5:55 PM 39.2 °F 33.6 °F 19.4 °F 45% 30.07 in 10.0 mi SSE 8.1 mph - N/A   Clear
6:15 PM 37.4 °F 30.8 °F 19.4 °F 48% 30.06 in 10.0 mi SSE 9.2 mph - N/A   Clear
6:35 PM 37.4 °F 30.8 °F 19.4 °F 48% 30.06 in 10.0 mi SSE 9.2 mph - N/A   Clear
6:55 PM 37.4 °F 30.8 °F 21.2 °F 52% 30.06 in 10.0 mi SSE 9.2 mph - N/A   Clear
7:15 PM 37.4 °F 31.4 °F 21.2 °F 52% 30.05 in 10.0 mi SSE 8.1 mph - N/A   Clear
7:35 PM 37.4 °F 31.4 °F 21.2 °F 52% 30.05 in 10.0 mi South 8.1 mph - N/A   Clear
7:55 PM 35.6 °F 29.9 °F 23.0 °F 60% 30.05 in 10.0 mi SSE 6.9 mph - N/A   Clear
8:15 PM 35.6 °F 32.8 °F 23.0 °F 60% 30.05 in 10.0 mi South 3.5 mph - N/A   Clear
8:35 PM 35.6 °F 32.8 °F 23.0 °F 60% 30.04 in 10.0 mi South 3.5 mph - N/A   Clear
8:55 PM 35.6 °F 30.7 °F 23.0 °F 60% 30.03 in 10.0 mi SSE 5.8 mph - N/A   Clear
9:15 PM 35.6 °F 32.8 °F 24.8 °F 65% 30.02 in 10.0 mi South 3.5 mph - N/A   Clear
9:35 PM 35.6 °F 31.7 °F 24.8 °F 65% 30.02 in 10.0 mi South 4.6 mph - N/A   Clear
9:55 PM 35.6 °F 29.2 °F 26.6 °F 70% 30.01 in 10.0 mi SSW 8.1 mph - N/A   Clear
10:15 PM 39.2 °F 33.6 °F 26.6 °F 61% 30.00 in 10.0 mi SSW 8.1 mph - N/A   Clear
10:35 PM 39.2 °F 33.0 °F 26.6 °F 61% 30.00 in 10.0 mi South 9.2 mph - N/A   Clear
10:55 PM 39.2 °F 33.0 °F 26.6 °F 61% 30.00 in 10.0 mi SSW 9.2 mph - N/A   Clear
11:15 PM 42.8 °F 37.5 °F 26.6 °F 53% 30.00 in 10.0 mi SSW 9.2 mph - N/A   Clear
11:35 PM 42.8 °F 37.5 °F 26.6 °F 53% 30.00 in 10.0 mi SW 9.2 mph - N/A   Clear
11:55 PM 42.8 °F 38.6 °F 26.6 °F 53% 29.99 in 10.0 mi SSW 6.9 mph - N/A   Clear